This is the latest recevied weather packets stored in our database for station/object KI4HRG. If no packets are shown the sender has not sent any weather packets the latest 10 day(s).
| Time | Temp. | Humidity | Pressure | Rain* | Wind** | Luminosity | Snow |
|---|---|---|---|---|---|---|---|
| 1787429791 | 35.56° C | 44% | 1014.9 hPa | 0 mm | - | 567 W/m² | - |
| 1787429485 | 35.56° C | 43% | 1015 hPa | 0 mm | - | 563 W/m² | - |
| 1787429182 | 35.56° C | 42% | 1015.1 hPa | 0 mm | - | 506 W/m² | - |
| 1787428877 | 35° C | 42% | 1014.8 hPa | 0 mm | - | 440 W/m² | - |
| 1787428573 | 35° C | 42% | 1015 hPa | 0 mm | - | 473 W/m² | - |
| 1787428273 | 35° C | 42% | 1015 hPa | 0 mm | - | 519 W/m² | - |
| 1787427968 | 35° C | 43% | 1015.3 hPa | 0 mm | - | 564 W/m² | - |
| 1787427663 | 36.11° C | 41% | 1015.4 hPa | 0 mm | - | 577 W/m² | - |
| 1787427358 | 35.56° C | 43% | 1015.3 hPa | 0 mm | - | 562 W/m² | - |
| 1787427055 | 35.56° C | 43% | 1015.2 hPa | 0 mm | - | 522 W/m² | - |
| 1787426750 | 35° C | 43% | 1015.4 hPa | 0 mm | - | 587 W/m² | - |
| 1787426445 | 35.56° C | 45% | 1015.4 hPa | 0 mm | - | 534 W/m² | - |
| 1787426142 | 35° C | 45% | 1015.3 hPa | 0 mm | - | 420 W/m² | - |
| 1787425838 | 35.56° C | 43% | 1015.4 hPa | 0 mm | - | 626 W/m² | - |
| 1787425534 | 33.89° C | 45% | 1015.4 hPa | 0 mm | - | 592 W/m² | - |
| 1787425230 | 34.44° C | 46% | 1015.5 hPa | 0 mm | - | 574 W/m² | - |
| 1787424929 | 34.44° C | 48% | 1015.4 hPa | 0 mm | - | 560 W/m² | - |
| 1787424628 | 35° C | 49% | 1015.6 hPa | 0 mm | - | 599 W/m² | - |
| 1787424324 | 35° C | 49% | 1015.6 hPa | 0 mm | - | 645 W/m² | - |
| 1787424024 | 35.56° C | 46% | 1015.3 hPa | 0 mm | - | 682 W/m² | - |
| 1787423720 | 35.56° C | 46% | 1015.4 hPa | 0 mm | - | 683 W/m² | - |
| 1787423417 | 35° C | 46% | 1015.5 hPa | 0 mm | - | 599 W/m² | - |
| 1787423112 | 35° C | 46% | 1015.7 hPa | 0 mm | - | 599 W/m² | - |
| 1787422808 | 34.44° C | 46% | 1015.7 hPa | 0 mm | - | 654 W/m² | - |
| 1787422504 | 34.44° C | 46% | 1015.8 hPa | 0 mm | - | 671 W/m² | - |
* Rain latest hour (hover to see other rain measurements)
** Current wind speed in m/s (hover to see current wind gust speed)